Flag for U.S.A. Weather past 2 weeks in Pontiac, Michigan, U.S.A.

Now
66 °F

Partly sunny.


Feels Like: 66 °F
Forecast: 55 / 80 °F
Wind: 7 mph from West

Location: Oakland County International Airport

Current Time: May 24, 2015 at 10:01:37 AM

Latest Report: May 24, 2015 at 8:53 AM


Visibility: 10 mi

Pressure: 30.24 "Hg

Humidity: 52%

Dew point: 48 °F

Location of PontiacLocation

Historic Weather in Pontiac — Graph

°F

Pontiac temperature yesterday

Maximum temperature yesterday: 73 °F (at 3:53 PM)
Minimum temperature yesterday: 35 °F (at 4:53 AM)
Average temperature yesterday: 58 °F

Past Weeks' High & Low Weather Summary

 TemperatureHumidityPressure
High82 °F (May 18, 3:53 PM)100% (May 10, 8:53 AM)30.48 "Hg (May 10, 8:53 AM)
Low35 °F (May 23, 4:53 AM)21% (May 23, 4:53 PM)29.74 "Hg (May 11, 6:53 PM)
Average59 °F67%30.10 "Hg
* Reported May 9 8:53 AM — May 24 8:53 AM, Pontiac, Weather by CustomWeather, © 2015

Note: Actual official high and low records may vary slightly from our data, if they occured in-between our weather recording intervals... More about our weather records

Advertising

Pontiac weather history for previous 24 hours

 ConditionsComfort  
Time TempWeatherWind HumidityBarometerVisibility
8:53 AM
Sun, May 24
66 °FPartly sunny.7 mph52%30.24 "Hg10 mi
7:53 AM62 °FScattered clouds.6 mph58%30.26 "Hg10 mi
6:53 AM55 °FPartly cloudy.No wind74%30.26 "Hg10 mi
5:53 AM57 °FPassing clouds.No wind67%30.24 "Hg10 mi
4:53 AM56 °FOvercast.No wind67%30.24 "Hg10 mi
3:53 AM53 °FOvercast.No wind69%30.24 "Hg10 mi
2:53 AM52 °FClear.No wind66%30.25 "Hg10 mi
1:53 AM54 °FClear.No wind59%30.25 "Hg10 mi
12:53 AM58 °FClear.No wind50%30.27 "Hg10 mi
11:53 PM
Sat, May 23
59 °FClear.3 mph48%30.27 "Hg10 mi
10:53 PM61 °FClear.6 mph44%30.27 "Hg10 mi
9:53 PM64 °FSunny.5 mph40%30.26 "Hg10 mi
8:53 PM69 °FPassing clouds.No wind27%30.24 "Hg10 mi
7:53 PM72 °FPassing clouds.3 mph23%30.26 "Hg10 mi
6:53 PM73 °FPassing clouds.3 mph22%30.27 "Hg10 mi
5:53 PM73 °FScattered clouds.3 mph21%30.28 "Hg10 mi
4:53 PM73 °FScattered clouds.3 mph21%30.30 "Hg10 mi
3:53 PM73 °FPassing clouds.3 mph22%30.33 "Hg10 mi
2:53 PM71 °FPassing clouds.3 mph25%30.33 "Hg10 mi
1:53 PM70 °FPassing clouds.3 mph27%30.34 "Hg10 mi
12:53 PM69 °FPassing clouds.10 mph29%30.36 "Hg10 mi
11:53 AM67 °FScattered clouds.9 mph32%30.39 "Hg10 mi
10:53 AM63 °FScattered clouds.12 mph38%30.39 "Hg10 mi
Weather by CustomWeather, © 2015

See weather overviewHow to use our weather pages